Location: Unspecified
(0.0000°N, 0.0000°E)
Time: 18:19:16
(UTC+00:00)

Courier 1B Rocket - Pass Details

Date: 05 October 2020
Orbit: 921 x 1202 km, 28.2° (Epoch: 27 October)

Event Time Altitude Azimuth Distance (km) Brightness Sun altitude
Rises 10:26:19 0° 315° (NW) 3,540 7.7 68.9°
Reaches altitude 10° 10:29:07 10° 324° (NW) 2,605 7.2 69.6°
Maximum altitude 10:34:46 36° 29° (NNE) 1,452 6.6 71.0°
Drops below altitude 10° 10:40:39 10° 94° (E) 2,711 7.8 72.4°
Sets 10:43:36 0° 103° (ESE) 3,702 8.3 73.1°
